Regional Weather Roundup
Issued by NWS State College, PA

Home | Current Version | Previous Version | Graphics & Text | Print | Product List | Glossary Off
Versions: 1 2 3 4 5 6 7 8 9 10 11 12 13 14 15 16 17 18 19 20 21 22 23 24 25 26 27 28 29 30 31 32 33 34 35 36 37 38 39 40 41 42 43 44 45 46 47 48 49 50

000
ASUS41 KCTP 210303
RWRCTP

REGIONAL WEATHER ROUNDUP
NATIONAL WEATHER SERVICE STATE COLLEGE PA
1100 PM EDT WED AUG 20 2014

Note: "fair" indicates few or no clouds below 12,000 feet with no
significant weather and/or obstructions to visibility.

* = STATION THAT DOES NOT REPORT PRECIPITATION /E.G. RAIN...SNOW...ETC/
    THUNDER OR FOG.

PAZ002>004-007>009-013>016-020>023-029>032-210400-
WESTERN PENNSYLVANIA

CITY           SKY/WX    TMP DP  RH WIND       PRES   REMARKS
ERIE           PTCLDY    70  65  84 S8        29.95R
MEADVILLE      PTCLDY    67  64  90 S3        30.00R
FRANKLIN*      CLOUDY    64  63  94 S5        30.03R
NEW CASTLE     NOT AVBL
BEAVER COUNTY  NOT AVBL
BUTLER*        CLOUDY    68  64  88 SW3       30.03R
PITTSBURGH INT PTCLDY    68  66  93 CALM      30.01R
PITTSBURGH     MOCLDY    70  63  78 SW5       30.01R
INDIANA*       MOCLDY    70  66  88 CALM      30.05R
LATROBE        PTCLDY    72  68  88 CALM      30.02S
WASHINGTON CO* CLEAR     66  64  94 CALM      30.02R
$$

PAZ004>006-010>012-017>019-024>028-033>037-041-042-045-046-049>053-210400-
CENTRAL PENNSYLVANIA

CITY           SKY/WX    TMP DP  RH WIND       PRES   REMARKS
BRADFORD       CLOUDY    67  64  90 SW3       30.02R
DUBOIS         CLOUDY    66  64  93 S3        30.02R
CLEARFIELD     MOCLDY    69  67  93 CALM      30.01S
JOHNSTOWN      PTCLDY    69  63  81 S7        30.06R
ALTOONA        MOCLDY    67  66  97 CALM      30.04R
STATE COLLEGE  MOCLDY    69  67  96 SW3       30.01S
WILLIAMSPORT   CLOUDY    72  66  81 E8        29.97S
SELINSGROVE    CLEAR     68  66  93 SW3       30.00R FOG
FT INDIANTOWN  PTCLDY    68  68 100 NW2       30.01R FOG
CAPITAL CITY   PTCLDY    68  66  93 CALM      30.01R
HARRISBURG     MOCLDY    73  66  78 S6        30.00R
YORK           MOCLDY    65  64  97 CALM      30.02R
$$

PAZ038>040-043-044-047-048-054-055-060>062-067>071-210400-
EASTERN PENNSYLVANIA

CITY           SKY/WX    TMP DP  RH WIND       PRES   REMARKS
SCRANTON       CLOUDY    74  64  71 SW3       30.00R
MOUNT POCONO   CLOUDY    68  63  84 S8        30.06R
ALLENTOWN      LGT RAIN  76  64  66 SW6       30.01R
QUAKERTOWN*    CLOUDY    73  64  73 CALM      30.03R
READING        CLOUDY    75  64  68 SE3       30.01R
LANCASTER      MOCLDY    70  63  78 S5        30.02R
COATESVILLE    CLOUDY    68  66  94 CALM      30.05R
POTTSTOWN      CLOUDY    73  62  68 S5        30.04R
BLUE BELL      CLOUDY    73  63  68 S5        30.01R
DOYLESTOWN     CLOUDY    71  62  73 S7        30.02R
WILLOW GROVE   NOT AVBL
NORTH PHILA    CLOUDY    73  61  65 CALM      30.03R
PHILADELPHIA   CLOUDY    73  62  68 S6        30.02R
$$



USA.gov is the U.S. government's official web portal to all federal, state and local government web resources and services.